George, South Africa

10:56 AM SAST on March 26, 2017 (GMT +0200)
George

Weather History for FAGG - September, 2013

Change the Weather History Date:

Tuesday, September 24, 2013

  Actual Average Record
Temperature  
Mean Temperature 56 °F -  
Max Temperature 64 °F 66 °F 78 °F (2015)
Min Temperature 49 °F 49 °F 43 °F (2016)
Degree Days  
Heating Degree Days 8    
Growing Degree Days 6 (Base 50)    
Moisture  
Dew Point 47 °F    
Average Humidity 67    
Maximum Humidity 82    
Minimum Humidity 44    
Precipitation  
Precipitation 0.00 in - - ()
Sea Level Pressure  
Sea Level Pressure 30.07 in    
Wind  
Wind Speed 6 mph ()    
Max Wind Speed 15 mph    
Max Gust Speed -    
Visibility 7.5 miles    
Events      
Averages and records for this station are not official NWS values.
T = Trace of Precipitation, MM = Missing Value Source: Averaged Metar Reports

Daily Weather History Graph

Daily Weather History Graph

Search for Another Location

Airport or City:

Trip Planner

Search our weather history database for the weather conditions in past years. The results will help you decide how hot, cold, wet, or windy it might be!

Date:

Astronomy

Sep. 24, 2013 Rise Set
Actual Time 6:17 AM SAST 6:28 PM SAST
Civil Twilight 5:52 AM SAST 6:53 PM SAST
Nautical Twilight 5:23 AM SAST 7:22 PM SAST
Astronomical Twilight 4:53 AM SAST 7:52 PM SAST
Moon 11:32 PM SAST (9/24) 9:17 AM SAST (9/24)
Length of Visible Light 13h 01m
Length of Day
12h 11m
Waning Gibbous, 75% of the Moon is Illuminated
Sep 24
Waning Gibbous
Sep 27
Last Quarter
Oct 5
New
Oct 12
First Quarter
Oct 19
Full

Hourly Weather History & Observations

Time (SAST) Temp. Dew Point Humidity Pressure Visibility Wind Dir Wind Speed Gust Speed Precip Events Conditions
12:00 AM 51.8 °F 46.4 °F 82% 30.06 in 6.2 mi West 5.8 mph - N/A   Mostly Cloudy
1:00 AM 53.6 °F 46.4 °F 77% 30.06 in 6.2 mi WNW 6.9 mph - N/A   Overcast
2:00 AM 54 °F 47 °F 69% 30.08 in 12 mi NNW 5.8 mph - -  
2:00 AM 53.6 °F 46.4 °F 77% 30.06 in 6.2 mi NNW 5.8 mph - N/A   Mostly Cloudy
3:00 AM 53.6 °F 46.4 °F 77% 30.06 in 6.2 mi NW 5.8 mph - N/A   Mostly Cloudy
4:00 AM 53.6 °F 44.6 °F 72% 30.04 in 6.2 mi NNW 3.5 mph - N/A   Mostly Cloudy
5:00 AM 53 °F 45 °F 67% 30.05 in 12 mi NW 4.6 mph - -   Partly Cloudy
5:00 AM 53.6 °F 44.6 °F 72% 30.04 in 6.2 mi NW 4.6 mph - N/A   Scattered Clouds
6:00 AM 50.0 °F 44.6 °F 82% 30.06 in 6.2 mi West 6.9 mph - N/A   Scattered Clouds
7:00 AM 51.8 °F 44.6 °F 76% 30.06 in 6.2 mi NW 5.8 mph - N/A   Scattered Clouds
8:00 AM 56 °F 48 °F 67% 30.10 in 12 mi NW 5.8 mph - -   Mostly Cloudy
8:00 AM 57.2 °F 48.2 °F 72% 30.09 in 6.2 mi NW 5.8 mph - N/A   Mostly Cloudy
9:00 AM 59.0 °F 48.2 °F 67% 30.09 in 6.2 mi West 12.7 mph - N/A   Mostly Cloudy
10:00 AM 62.6 °F 46.4 °F 55% 30.09 in 6.2 mi WSW 13.8 mph - N/A   Scattered Clouds
11:00 AM 63 °F 47 °F 44% 30.09 in 12 mi West 8.1 mph - -   Partly Cloudy
11:00 AM 62.6 °F 46.4 °F 55% 30.06 in 6.2 mi West 8.1 mph - N/A   Scattered Clouds
12:00 PM 64.4 °F 48.2 °F 56% 30.06 in 6.2 mi SSW 15.0 mph - N/A   Scattered Clouds
1:00 PM 62.6 °F 48.2 °F 59% 30.06 in 6.2 mi SSW 15.0 mph - N/A   Partly Cloudy
2:00 PM 62 °F 47 °F 46% 30.08 in 12 mi SSW 9.2 mph - -   Scattered Clouds
2:00 PM 62.6 °F 48.2 °F 59% 30.06 in 6.2 mi SSW 10.4 mph - N/A   Partly Cloudy
3:00 PM 60.8 °F 48.2 °F 63% 30.06 in 6.2 mi SW 11.5 mph - N/A   Scattered Clouds
4:00 PM 60.8 °F 46.4 °F 59% 30.06 in 6.2 mi SSW 10.4 mph - N/A   Mostly Cloudy
5:00 PM 59 °F 48 °F 57% 30.08 in 12 mi South 9.2 mph - -   Mostly Cloudy
5:00 PM 59.0 °F 46.4 °F 63% 30.06 in 6.2 mi South 9.2 mph - N/A   Mostly Cloudy
6:00 PM 59.0 °F 48.2 °F 67% 30.06 in 6.2 mi South 5.8 mph - N/A   Scattered Clouds
7:00 PM 57.2 °F 48.2 °F 72% 30.06 in 6.2 mi SSE 2.3 mph - N/A   Mostly Cloudy
8:00 PM 57 °F 49 °F 67% 30.09 in 12 mi SSE 2.3 mph - -   Mostly Cloudy
8:00 PM 57.2 °F 50.0 °F 77% 30.06 in 6.2 mi SSE 2.3 mph - N/A   Mostly Cloudy
9:00 PM 57.2 °F 50.0 °F 77% 30.09 in 6.2 mi Variable 2.3 mph - N/A   Overcast
10:00 PM 57.2 °F 50.0 °F 77% 30.09 in 6.2 mi Variable 2.3 mph - N/A   Overcast
11:00 PM 57.2 °F 50.0 °F 77% 30.06 in 6.2 mi NNW 3.5 mph - N/A   Overcast